Regional Weather Roundup
Issued by NWS

Home | Current Version | Previous Version | Text Only | Print | Product List | Glossary Off
Versions: 1 2 3 4 5 6 7 8 9 10 11 12 13 14 15 16 17 18 19 20 21 22 23 24 25 26 27 28 29 30 31 32 33 34 35 36 37 38 39 40 41 42 43 44 45 46 47 48 49 50

000
ASUS45 KSLC 231910
RWRUT

UTAH REGIONAL WEATHER ROUNDUP
NATIONAL WEATHER SERVICE SALT LAKE CITY UT
100 PM MDT WED JUL 23 2014

UTZ001>011-023>025-232000-

NORTHERN UTAH

CITY           SKY/WX    TMP DP  RH WIND       PRES   REMARKS
HILL AFB       SUNNY     93  40  15 VRB5      30.16F
LOGAN          NOT AVBL
OGDEN          SUNNY     94  37  13 CALM      30.12F
PROVO AIRPORT  MOSUNNY   93  41  16 SE7       30.16F
SALT LAKE CITY MOSUNNY   99  32   9 SE22G28   30.08F HX  93
VERNAL         MOSUNNY   89  29  11 SE7       30.24F
WENDOVER       SUNNY     95  30  10 E12       30.09F
HEBER CITY     SUNNY     95  36  12 W17       30.23F HX  90
WEST JORDAN    SUNNY     99  52  20 SE13G22   30.13F HX  96

$$

UTZ012>022-026-027-232000-

SOUTHERN UTAH

CITY           SKY/WX    TMP DP  RH WIND       PRES   REMARKS
BRYCE CANYON   MOSUNNY   88  38  17 S14G20    30.45F
CEDAR CITY     SUNNY     95  34  11 SW18G25   30.25F HX  90
MILFORD        SUNNY     96  34  11 S14G26    30.18F HX  91
MOAB/CYNLANDS  SUNNY     99  37  11 S12       30.16F HX  94
PRICE          MOSUNNY   92  34  13 SE10      30.30F
ST GEORGE      CLEAR    100  36  10 NW6       30.06F HX  95

$$

REGIONAL REPORTS     COLORADO/ARIZONA

CITY           SKY/WX    TMP DP  RH WIND       PRES   REMARKS
CRAIG, CO      PTSUNNY   88  38  17 W9        30.33F
GRAND JUNCTION MOSUNNY   94  39  14 CALM      30.21F HX  90
RIFLE          MOSUNNY   94  38  14 NW8       30.27F
MONTROSE       SUNNY     96  40  14 VRB5      30.30F HX  92
CORTEZ         SUNNY     93  42  17 S14G21    30.34F
PAGE, AZ       SUNNY    100  44  14 VRB6      30.17F HX  96
GRAND CANYON   MOSUNNY   87  37  17 MISG      30.38S
KINGMAN        SUNNY    100  36  11 SW16G22   30.10F HX  94
FLAGSTAFF      PTSUNNY   84  41  21 E5        30.42S

$$

REGIONAL REPORTS    NEVADA/IDAHO/WYOMING

CITY           SKY/WX    TMP DP  RH WIND       PRES   REMARKS
LAS VEGAS, NV  MOSUNNY  105  28   7 S14G23    29.93F HX  98
ELY            SUNNY     91  21   8 S21G31    30.26F
ELKO           SUNNY     91  21   8 SW15      30.14F
POCATELLO, ID  SUNNY     87  48  25 VRB6      30.14F
BURLEY         MOSUNNY   84  50  30 N5        30.10F
EVANSTON, WY   MOSUNNY   87  38  17 SW17      30.37F
ROCK SPRINGS   MOSUNNY   92  23   8 W12G20    30.32F

$$



USA.gov is the U.S. government's official web portal to all federal, state and local government web resources and services.